Wind_Speed
19 22 26 24 22 24 26 25 24 23 20 19 18 18 17 17 16 17 17 17 18 17 17 18 19 18 18 18 17 17 16 16 16 17 16 15 15 14 14 15 9 11 12
25 25 27 26 24 25 26 26 24 22 20 19 17 17 17 17 17 17 18 18 17 17 16 16 16 16 15 14 13 13 12 14 15 16 16 18 15 14 15 14 13 12 11
27 26 28 27 26 25 27 26 24 22 20 19 18 18 18 18 18 17 18 18 17 17 16 15 14 14 13 13 12 10 10 10 11 15 14 11 12 13 13 13 13 13 12
28 26 25 28 27 27 27 26 24 22 21 20 19 19 19 18 18 17 17 17 16 15 14 13 12 12 12 11 10 9 9 8 8 11 8 10 10 12 11 12 12 12 13
27 26 25 29 28 27 26 25 23 22 21 20 19 18 18 18 18 18 17 16 15 14 13 12 11 11 9 9 8 8 8 7 7 7 7 7 8 9 10 10 9 10 9
26 26 26 30 28 27 26 24 23 22 20 19 18 18 17 17 18 18 17 16 14 13 12 11 11 10 9 7 7 7 7 8 8 7 7 8 8 8 9 9 8 8 8
26 24 25 30 29 27 25 23 22 21 20 19 17 17 17 17 17 17 17 16 14 13 12 10 10 9 8 8 7 7 6 6 3 6 7 7 7 9 9 9 8 7 6
23 22 23 30 28 27 26 23 22 21 20 19 17 16 16 16 16 16 15 15 14 13 11 10 8 7 7 8 8 8 7 6 3 5 7 7 8 9 6 6 5 5 4
20 20 23 26 29 27 26 24 23 22 22 20 18 17 16 15 15 15 15 14 13 13 12 11 9 8 7 6 8 9 8 7 4 4 7 7 7 7 5 3 1 2 2
19 19 22 23 25 24 24 24 23 23 23 22 20 18 17 16 15 15 15 14 13 12 12 11 11 10 9 8 9 9 7 7 3 4 6 6 8 6 2 2 2 2 2
18 18 22 23 23 22 21 21 22 22 22 22 20 19 18 14 15 15 14 15 14 13 12 12 11 11 10 10 10 9 8 5 5 4 4 8 9 7 5 5 3 3 3
22 21 23 24 24 23 21 19 20 18 19 19 18 18 17 16 16 15 16 17 15 14 13 12 12 12 12 9 8 9 7 6 6 4 3 6 8 7 6 6 6 6 5
21 21 24 24 24 25 23 21 21 20 20 20 20 19 18 16 16 17 15 15 14 15 12 13 12 11 12 11 10 9 7 8 6 5 4 5 5 8 8 8 6 4 4
22 22 23 25 25 25 23 23 22 23 22 21 22 22 19 18 17 16 15 15 15 14 14 14 13 13 13 11 10 10 9 8 7 6 5 5 5 6 6 4 3 4 5
22 22 24 25 26 25 25 23 23 24 24 23 22 23 22 20 18 18 17 15 15 14 14 14 14 14 13 12 11 11 10 8 7 6 4 6 6 6 6 5 5 5 6
21 22 24 26 26 25 27 25 24 23 23 23 23 24 25 22 20 19 18 18 17 16 15 15 15 14 14 13 13 12 10 9 8 7 5 3 8 10 8 8 8 7 6
21 22 25 26 26 26 27 27 26 24 24 25 25 24 25 25 22 21 20 20 20 18 17 15 15 15 15 14 13 11 10 9 8 7 7 6 7 12 12 11 9 9 7
20 23 24 25 27 29 28 27 26 26 26 26 25 25 26 26 26 24 22 21 20 19 18 18 18 17 17 15 14 12 11 10 9 8 8 8 8 7 10 9 7 6 6
19 21 23 26 29 30 28 29 28 28 28 27 27 27 27 28 28 27 25 23 22 22 22 21 20 20 18 16 14 12 11 10 10 10 9 9 10 9 8 9 7 6 6
16 19 23 24 28 27 26 27 27 28 29 28 29 29 28 29 30 29 28 26 24 24 24 24 22 20 19 17 14 12 11 10 11 11 11 10 10 11 10 8 4 3 6
9 15 20 22 26 25 28 29 29 32 29 31 32 31 31 30 29 30 30 28 28 28 28 27 24 22 18 15 12 5 6 8 11 12 12 12 12 11 9 7 6 6 4
13 11 12 19 22 25 27 28 29 28 30 29 30 32 34 33 34 33 33 32 30 30 29 29 28 24 23 22 15 8 4 7 13 14 14 14 13 11 10 8 7 6 6
15 16 14 9 16 21 24 24 25 26 27 27 31 33 35 35 37 39 37 36 33 32 31 32 31 30 26 24 23 10 3 6 10 14 16 15 14 13 11 9 8 7 6
18 17 16 14 9 13 19 23 25 26 28 32 30 30 31 35 39 40 41 40 39 36 36 34 34 34 29 24 18 19 10 5 5 5 15 18 16 16 14 11 9 8 6
19 19 19 17 14 10 14 21 24 27 29 30 29 30 31 31 35 38 40 40 41 41 39 37 36 37 34 26 25 16 15 10 9 8 7 11 18 18 15 12 11 9 7
19 21 21 20 18 15 13 16 23 28 29 28 27 28 28 30 32 37 40 40 41 40 40 40 39 39 37 30 36 28 24 14 16 12 7 10 15 19 17 13 11 10 8
Wind_Direction
164 165 164 166 166 168 173 167 162 158 155 149 143 139 136 133 129 125 121 119 115 111 108 105 103 101 99 95 92 88 85 83 83 84 81 79 75 73 79 80 78 74 81
160 165 165 168 166 167 172 169 165 160 157 154 150 143 138 134 131 127 123 121 118 117 114 112 110 106 101 96 91 85 80 78 80 83 77 67 76 75 75 80 87 76 77
160 164 166 169 167 167 170 169 166 162 161 158 152 147 143 140 137 132 128 127 125 123 122 120 117 111 104 100 97 92 93 92 89 88 82 86 77 77 76 74 71 72 74
159 165 168 171 169 169 170 169 168 166 164 159 156 153 149 146 142 140 137 134 130 127 127 130 126 123 117 109 102 100 101 108 110 95 87 91 83 78 79 76 74 76 60
161 166 172 173 172 173 174 172 170 170 167 163 162 158 157 153 150 148 145 142 139 135 136 137 138 136 130 121 114 114 113 117 125 114 109 100 89 76 76 78 54 68 94
165 168 181 177 176 177 177 175 174 174 170 170 169 166 163 160 157 156 155 153 152 148 147 148 146 146 147 140 134 131 126 119 127 149 133 116 96 85 76 76 76 72 68
169 172 183 181 180 181 181 180 179 178 175 175 176 173 171 169 164 163 163 162 161 160 159 159 159 157 157 158 158 157 147 136 140 164 157 139 122 96 84 75 68 63 63
171 175 177 183 186 187 187 185 184 182 182 182 182 179 177 177 172 171 171 170 169 168 168 169 169 169 168 165 163 163 157 150 150 167 171 155 138 107 92 86 66 61 55
176 180 181 183 189 192 195 191 190 188 187 187 187 186 184 184 180 179 179 179 177 177 177 177 178 177 176 173 164 161 158 149 177 167 179 168 152 126 122 121 40 10 9
180 184 185 188 190 192 198 199 197 194 194 192 192 192 190 191 191 190 187 187 186 185 186 185 184 183 180 175 172 172 167 147 183 165 181 171 166 151 148 265 258 289 288
186 186 186 191 194 194 197 204 202 201 200 198 196 196 195 192 198 205 196 212 195 194 194 194 194 192 190 183 181 181 176 212 197 193 191 200 192 198 202 234 265 280 289
188 191 191 192 194 194 196 200 200 205 203 201 201 201 197 200 201 201 205 207 203 202 203 203 204 202 194 204 198 189 211 214 222 224 206 205 207 217 235 251 268 271 269
196 194 195 197 198 196 197 197 199 204 206 209 207 204 203 209 209 205 205 203 206 208 209 212 211 207 214 215 214 214 219 224 229 230 230 220 230 231 250 266 265 239 225
200 201 201 200 201 204 202 203 203 202 205 207 209 206 205 208 211 211 212 208 207 210 209 209 213 212 211 214 220 223 226 235 232 233 233 225 222 230 233 235 210 181 163
205 204 206 204 204 207 208 211 210 212 210 209 208 210 207 210 212 212 215 214 214 214 214 212 213 211 212 216 223 227 229 232 229 222 214 206 199 196 199 180 168 159 149
214 211 209 209 210 209 211 213 215 216 218 215 216 213 211 213 214 213 214 214 214 214 217 215 212 213 217 223 228 230 227 231 222 213 209 175 179 183 183 159 140 144 151
224 220 215 213 211 213 217 218 220 221 220 223 219 219 217 214 215 213 217 218 217 218 216 216 217 220 224 227 227 222 222 218 217 210 203 187 167 181 182 182 170 158 151
235 228 224 218 217 214 216 222 224 226 224 225 227 223 221 219 216 218 218 220 220 219 221 221 221 225 230 223 219 219 216 213 209 203 205 200 194 184 188 191 194 198 205
251 240 233 227 224 219 218 219 223 225 227 226 227 227 224 221 220 221 223 222 219 221 223 224 225 224 225 225 220 212 207 210 207 205 201 196 195 198 203 195 207 227 243
264 251 244 236 233 228 226 223 226 228 229 230 230 230 228 225 223 220 225 224 219 222 225 225 225 224 225 222 217 207 204 208 209 209 203 197 197 198 203 205 222 234 239
296 263 251 245 239 230 225 223 223 226 228 230 230 229 229 227 226 226 225 225 224 225 225 221 218 219 217 203 170 173 206 213 212 210 208 207 205 207 211 214 226 238 246
12 352 275 254 251 238 236 234 233 233 233 235 236 233 228 225 222 222 225 225 225 227 227 224 214 207 211 197 196 161 183 204 224 215 214 212 210 213 215 216 220 226 232
12 4 3 311 258 249 241 244 239 238 240 236 235 234 231 227 223 219 220 222 223 221 225 221 215 211 208 201 199 186 171 223 180 208 217 217 213 217 219 218 217 219 220
5 357 351 350 320 261 249 241 242 238 238 239 236 238 233 228 226 225 221 218 217 217 218 219 214 213 211 199 194 230 212 169 202 185 212 215 217 218 216 217 218 217 216
6 357 352 348 345 321 261 245 248 248 251 254 253 246 241 237 232 231 226 222 220 219 220 216 211 211 210 187 192 178 222 221 208 255 196 198 215 217 215 217 218 217 218
5 3 354 350 345 340 322 267 251 256 258 260 259 255 248 242 237 233 230 225 224 221 219 217 214 207 200 204 207 206 190 186 200 202 238 194 203 207 211 213 213 214 216
Height
796 802 805 809 812 814 817 819 820 822 824 825 826 826 827 828 829 830 830 831 832 833 834 833 834 834 835 835 836 836 836 836 835 835 835 835 835 835 834 834 834 835 833
795 801 805 809 812 814 817 819 821 823 825 826 827 828 829 830 831 831 832 833 834 834 835 835 836 836 836 837 837 838 838 838 838 837 837 837 837 837 836 836 836 836 835
796 802 806 809 813 816 818 820 822 824 825 827 828 828 829 830 831 833 834 835 835 835 836 837 838 838 838 839 839 839 839 840 840 840 839 841 841 839 839 839 838 838 837
796 803 807 809 813 816 819 821 822 824 826 827 829 829 830 831 831 833 835 836 836 837 838 838 839 840 839 840 840 840 840 841 841 841 842 842 843 841 841 840 840 839 839
797 802 807 809 812 816 819 821 823 825 827 828 830 830 831 831 832 834 835 837 837 838 838 839 840 840 841 841 841 841 841 841 842 841 843 844 844 843 842 842 841 841 841
797 802 805 808 812 816 819 821 823 825 827 830 831 832 832 833 833 834 835 836 837 838 838 839 840 840 841 841 842 842 842 841 841 842 844 844 845 844 843 843 842 842 841
797 802 804 809 812 815 819 820 823 825 827 829 831 832 834 834 834 835 836 836 837 838 839 839 840 840 840 841 841 842 842 842 842 842 843 844 844 844 844 844 843 843 842
800 803 805 809 813 816 818 820 822 824 827 829 831 833 834 835 835 836 837 837 837 838 839 840 840 841 841 841 841 841 842 842 842 843 842 843 844 844 844 844 844 843 842
800 804 807 808 811 815 818 819 821 823 825 828 830 832 833 835 835 836 837 838 838 838 839 839 840 841 841 841 841 841 841 841 842 841 842 842 844 844 844 843 843 843 843
800 803 807 811 812 815 818 820 821 822 824 826 828 831 832 834 836 836 837 837 838 838 839 839 839 840 840 841 841 841 842 842 841 841 841 841 843 844 844 844 843 842 842
799 801 805 810 813 816 819 821 823 824 825 826 828 829 831 834 834 835 837 837 837 837 838 839 839 839 839 840 840 841 842 841 841 840 840 841 842 842 842 843 842 842 842
794 799 803 806 810 813 816 819 822 825 826 827 829 829 832 833 833 834 835 835 836 837 837 838 838 839 839 840 840 840 840 840 841 840 839 840 841 841 841 841 841 841 841
793 797 800 804 808 810 812 815 818 821 824 826 827 828 830 832 832 833 833 833 835 835 836 836 837 838 839 838 838 838 839 840 838 839 839 840 840 840 840 839 839 839 839
789 794 798 801 805 807 810 812 814 815 819 821 823 825 827 829 830 831 832 832 833 833 834 834 835 836 836 837 837 837 838 837 837 838 838 838 838 838 838 838 838 838 838
785 789 793 797 800 804 807 809 810 812 813 815 818 820 823 824 826 828 829 830 831 831 831 831 832 833 834 835 835 836 836 836 837 837 837 836 836 837 837 837 837 837 838
782 785 788 792 795 798 801 804 806 808 811 812 814 815 817 819 821 823 825 826 826 827 828 829 829 830 831 832 832 833 834 835 835 835 836 836 836 835 836 837 837 837 837
777 780 782 786 790 793 796 799 802 803 806 808 808 811 812 813 816 818 820 821 822 824 825 826 827 828 828 828 829 830 832 833 834 834 835 835 836 836 836 836 836 836 836
770 774 779 781 783 785 789 794 796 798 800 802 804 804 806 808 810 812 814 816 818 820 822 823 824 824 825 824 826 827 828 830 831 832 833 834 835 836 835 835 835 835 835
766 769 773 776 777 779 782 785 788 791 792 794 796 798 799 801 804 807 809 810 813 815 816 818 819 820 820 823 824 825 826 827 828 830 831 832 833 834 835 832 832 832 833
761 763 766 770 772 777 779 780 782 784 785 788 789 790 793 795 797 799 802 805 806 808 810 812 814 815 817 819 821 823 823 825 826 827 828 829 830 831 832 832 831 830 830
756 758 760 763 766 770 771 772 773 773 776 777 778 780 784 788 791 794 795 798 800 801 802 804 806 810 814 816 819 822 823 823 823 824 825 826 828 829 830 830 831 831 829
758 756 755 758 760 762 763 764 765 768 767 769 770 771 773 776 778 781 785 788 790 794 796 798 799 801 806 809 811 817 820 822 820 821 822 823 825 826 827 827 827 827 827
757 756 754 753 753 756 757 759 759 761 761 760 759 760 762 766 767 767 771 776 779 782 785 788 791 793 795 800 801 804 810 807 807 815 819 820 822 823 823 824 824 824 824
760 757 755 753 750 750 751 752 753 752 750 748 751 751 753 754 755 758 759 761 764 768 771 775 781 784 788 790 799 801 798 795 800 807 812 815 818 818 819 819 821 821 821
761 758 756 753 749 747 746 747 748 746 745 744 744 744 745 746 746 748 749 751 753 756 758 763 767 771 776 780 783 784 798 798 793 797 796 805 812 813 814 816 817 818 818
761 757 755 752 748 746 745 743 742 742 739 738 738 737 736 736 737 736 739 740 742 745 747 751 756 759 763 772 771 777 778 785 785 789 795 793 799 804 808 811 813 814 815